Погода в Жилгородке

Россия / Санкт-Петербург и Ленинградская область     59°33′41″N   29°28′18″E
темп.,
°C
ветер,
м/с
пор.,
м/с
влажн.,
%
обл.,
%
осадки,
мм/ч
давл.,
гПа
погр.,
м
3 августа, вт
вт300:00+13зсз71398100 5.4 995857
03:00+13зсз61297100 9.0 997814
06:00+12зюз5139835 0.3 998556
09:00+15юз5118829 0.3 999793
12:00+19зюз695758 0.1 10001658
15:00+17зюз597918 1.3 10021140
18:00+15зсз49825 1.3 10041065
21:00+13з39885 1.5 1006402
4 августа, ср
ср400:00+10зюз27955 0.0 1009126
03:00+9зюз38945 0.0 1010150
06:00+9зюз26942 0.0 1012134
09:00+15з36653 0.0 1013835
12:00+18зюз454550 0.3 10142076
15:00+19з453720 0.3 10142263
18:00+19з354118 0.0 10151963
21:00+12сз22695 0.0 101618
5 августа, чт
чт500:00+10в117160 0.0 101710
03:00+9ююв11735 0.0 101811
06:00+10ююв11775 0.0 101811
09:00+17вюв125621 0.0 1018366
12:00+21вюв11396 0.0 10172046
15:00+19в1251100 0.0 1017456
18:00+19всв125286 0.0 1016412
21:00+14всв266474 0.0 1017147
6 августа, пт
пт600:00+12св3106826 0.0 1017194
03:00+11всв387571 0.0 1016183
06:00+13св247578 0.0 1016103
09:00+17вюв36645 0.0 1016663
12:00+20в694579 0.0 10142138
15:00+19в5950100 0.0 10141597
18:00+19всв5115197 0.0 10131574
21:00+16св41261100 0.0 1012652
7 августа, сб
сб700:00+15всв61364100 0.0 1012878
03:00+14всв61471100 0.1 1011800
06:00+11всв71693100 1.4 1010695
09:00+11всв61598100 7.8 1009709
12:00+12всв61398100 1.3 1009682
15:00+12в51198100 1.3 1009643
18:00+14в41098100 0.0 1009529
21:00+14вюв4999100 0.3 1008511